Weather History for Berlin, NH

Change the Weather History Date:

Saturday, November 3, 2012

  Actual Average Record
Temperature  
Mean Temperature 40 °F -  
Max Temperature 42 °F 44 °F 64 °F (1999)
Min Temperature 37 °F 26 °F -2 °F (2002)
Degree Days  
Heating Degree Days 26    
Moisture  
Dew Point 33 °F    
Average Humidity 77    
Maximum Humidity 87    
Minimum Humidity 67    
Precipitation  
Precipitation 0.00 in - - ()
Sea Level Pressure  
Sea Level Pressure 29.71 in    
Wind  
Wind Speed 7 mph (WNW)    
Max Wind Speed 12 mph    
Max Gust Speed 18 mph    
Visibility 10 miles    
Events Rain    
Averages and records for this station are not official NWS values.
T = Trace of Precipitation, MM = Missing Value Source: NWS Daily Summary

Daily Weather History Graph

Daily Weather History Graph

Search for Another Location

Airport:

Trip Planner

Search our weather history database for the weather conditions in past years. The results will help you decide how hot, cold, wet, or windy it might be!

Date:

Astronomy

Nov. 03, 2012 Rise Set
Actual Time 7:25 AM EDT 5:30 PM EDT
Civil Twilight 6:55 AM EDT 6:00 PM EDT
Nautical Twilight 6:20 AM EDT 6:35 PM EDT
Astronomical Twilight 5:46 AM EDT 7:09 PM EDT
Moon 9:04 PM EDT (11/3) 11:31 AM EDT (11/3)
Length of Visible Light 11h 05m
Length of Day
10h 04m
Waning Gibbous, 80% of the Moon is Illuminated
Nov 3
Waning Gibbous
Nov 6
Last Quarter
Nov 13
New
Nov 20
First Quarter
Nov 28
Full

Hourly Weather History & Observations

Time (EDT) Temp. Windchill Dew Point Humidity Pressure Visibility Wind Dir Wind Speed Gust Speed Precip Events Conditions
1:52 AM 39.9 °F 37.8 °F 34.0 °F 79% 29.61 in 10.0 mi Variable 3.5 mph - N/A   Overcast
2:52 AM 39.9 °F 35.1 °F 34.0 °F 79% 29.62 in 10.0 mi West 6.9 mph - N/A   Overcast
3:52 AM 39.0 °F 34.8 °F 34.0 °F 82% 29.63 in 10.0 mi Variable 5.8 mph - N/A   Overcast
4:52 AM 39.0 °F 34.0 °F 34.0 °F 82% 29.63 in 10.0 mi Variable 6.9 mph - N/A   Overcast
5:52 AM 39.0 °F 33.4 °F 35.1 °F 86% 29.65 in 10.0 mi West 8.1 mph - N/A   Overcast
6:52 AM 39.0 °F 32.8 °F 34.0 °F 82% 29.66 in 10.0 mi West 9.2 mph - N/A   Overcast
7:52 AM 39.0 °F 34.8 °F 33.1 °F 79% 29.68 in 10.0 mi West 5.8 mph - N/A   Overcast
8:36 AM 39.2 °F 33.6 °F 33.8 °F 81% 29.67 in 10.0 mi West 8.1 mph - N/A   Overcast
8:45 AM 39.2 °F 33.6 °F 33.8 °F 81% 29.67 in 10.0 mi West 8.1 mph - N/A   Overcast
8:52 AM 39.0 °F 33.4 °F 33.1 °F 79% 29.70 in 10.0 mi West 8.1 mph - N/A   Overcast
9:37 AM 39.2 °F 32.5 °F 32.0 °F 75% 29.68 in 10.0 mi WNW 10.4 mph 18.4 mph N/A   Overcast
9:52 AM 39.0 °F 31.8 °F 32.0 °F 76% 29.71 in 10.0 mi West 11.5 mph 17.3 mph N/A   Overcast
10:52 AM 39.9 °F 36.7 °F 32.0 °F 73% 29.73 in 10.0 mi Variable 4.6 mph - N/A   Overcast
11:27 AM 41.0 °F 35.8 °F 32.0 °F 70% 29.70 in 10.0 mi WNW 8.1 mph - N/A   Overcast
11:52 AM 41.0 °F 34.3 °F 30.9 °F 67% 29.72 in 10.0 mi WNW 11.5 mph 18.4 mph N/A   Overcast
12:44 PM 41.0 °F 36.4 °F 32.0 °F 70% 29.69 in 10.0 mi Variable 6.9 mph - N/A   Overcast
12:52 PM 41.0 °F 34.7 °F 32.0 °F 70% 29.72 in 10.0 mi West 10.4 mph 16.1 mph N/A   Overcast
1:31 PM 42.8 °F 38.0 °F 33.8 °F 70% 29.69 in 10.0 mi West 8.1 mph - N/A   Overcast
1:52 PM 41.0 °F 35.2 °F 32.0 °F 70% 29.72 in 10.0 mi West 9.2 mph - N/A   Overcast
2:52 PM 41.0 °F 35.8 °F 32.0 °F 70% 29.72 in 10.0 mi WNW 8.1 mph - N/A   Overcast
3:52 PM 39.9 °F 35.8 °F 32.0 °F 73% 29.73 in 10.0 mi Variable 5.8 mph 18.4 mph N/A   Overcast
4:52 PM 39.9 °F 33.4 °F 32.0 °F 73% 29.74 in 10.0 mi WNW 10.4 mph 18.4 mph N/A   Overcast
5:07 PM 39.2 °F 33.0 °F 30.2 °F 70% 29.71 in 10.0 mi WNW 9.2 mph - N/A   Overcast
5:52 PM 39.0 °F 34.8 °F 32.0 °F 76% 29.75 in 10.0 mi WNW 5.8 mph 16.1 mph N/A   Overcast
6:52 PM 39.0 °F 34.0 °F 32.0 °F 76% 29.77 in 10.0 mi WNW 6.9 mph - N/A   Overcast
7:16 PM 39.2 °F 37.0 °F 32.0 °F 75% 29.74 in 10.0 mi Variable 3.5 mph - N/A   Overcast
7:50 PM 39.2 °F 35.0 °F 32.0 °F 75% 29.75 in 10.0 mi Variable 5.8 mph - N/A   Overcast
7:52 PM 39.0 °F 33.4 °F 32.0 °F 76% 29.78 in 10.0 mi West 8.1 mph - N/A   Overcast
8:52 PM 37.9 °F 33.5 °F 32.0 °F 79% 29.79 in 10.0 mi WNW 5.8 mph - N/A   Overcast
9:19 PM 37.4 °F 33.8 °F 33.8 °F 87% 29.76 in 10.0 mi Variable 4.6 mph - N/A   Overcast
9:52 PM 37.9 °F 34.4 °F 33.1 °F 83% 29.80 in 10.0 mi Variable 4.6 mph - N/A   Overcast
10:14 PM 37.4 °F 34.9 °F 33.8 °F 87% 29.76 in 10.0 mi Variable 3.5 mph - N/A   Overcast
10:52 PM 37.9 °F 34.4 °F 33.1 °F 83% 29.80 in 10.0 mi Variable 4.6 mph - 0.00 in Rain Light Rain
11:52 PM 37.0 °F - 33.1 °F 86% 29.80 in 10.0 mi Calm Calm - 0.00 in   Overcast